Voltar ao catálogo

CZ-6A DEB

AtivoPO
NORAD 61307·DEBRIS·🇨🇳 China

Lançado Aug 6, 2024 de Taiyuan Satellite Launch Center

Loading…

Próximas Passagens (próximas 24 horas)

TLE

AtualizadoSource: Space-Track

Época: Sep 14, 2026, 09:17 UTC

1 61307U 24140TU  26257.38689947  .00001851  00000-0  36395-3 0  9998
2 61307  88.7935 239.4641 0095526 272.1383  86.8892 14.59352009108784

Acompanhe CZ-6A DEB em tempo real com AllMySat

Download on the App Store